Flag for Poland Weather past 2 weeks in Gdynia, Poland

Now
61 °F

Passing clouds.


Feels Like: 61 °F
Forecast: 51 / 63 °F
Wind: 10 mph from Northeast

Location: Gdansk-Rebiechowo

Current Time: May 29, 2015 at 2:32:14 PM

Latest Report: May 29, 2015 at 2:00 PM


Visibility: N/A

Pressure: 29.89 "Hg

Humidity: 55%

Dew point: 45 °F

Location of GdyniaLocation

Historic Weather in Gdynia — Graph

°F

Gdynia temperature yesterday

Maximum temperature yesterday: 64 °F (at 6:00 PM)
Minimum temperature yesterday: 43 °F (at 3:30 AM)
Average temperature yesterday: 54 °F

Past Weeks' High & Low Weather Summary

 TemperatureHumidityPressure
High73 °F (May 19, 1:00 PM)100% (May 15, 3:30 AM)30.27 "Hg (May 15, 3:30 AM)
Low37 °F (May 24, 5:30 AM)24% (May 15, 5:00 PM)29.59 "Hg (May 19, 11:00 AM)
Average52 °F72%29.95 "Hg
* Reported May 14 1:00 PM — May 29 1:30 PM, Gdynia, Weather by CustomWeather, © 2015

Note: Actual official high and low records may vary slightly from our data, if they occured in-between our weather recording intervals... More about our weather records

Advertising

Gdynia weather history for previous 24 hours

 ConditionsComfort  
Time TempWeatherWind HumidityBarometerVisibility
1:30 PM
Fri, May 29
61 °FPassing clouds.7 mph39%29.89 "HgN/A
1:00 PM59 °FPassing clouds.8 mph45%29.92 "HgN/A
12:30 PM59 °FPassing clouds.8 mph48%29.92 "HgN/A
12:00 PM57 °FPassing clouds.9 mph51%29.92 "HgN/A
11:30 AM59 °FPassing clouds.8 mph45%29.92 "HgN/A
11:00 AM57 °FScattered clouds.9 mph51%29.92 "HgN/A
10:30 AM57 °FScattered clouds.10 mph55%29.92 "HgN/A
10:00 AM55 °FPartly sunny.9 mph59%29.89 "HgN/A
9:30 AM54 °FPartly sunny.8 mph67%29.89 "HgN/A
9:00 AM54 °FPartly sunny.7 mph72%29.89 "HgN/A
8:30 AM52 °FPartly sunny.9 mph77%29.89 "HgN/A
8:00 AM52 °FPartly sunny.8 mph77%29.89 "HgN/A
7:30 AM50 °FPartly sunny.7 mph88%29.89 "HgN/A
7:00 AM50 °FPassing clouds.6 mph88%29.86 "HgN/A
6:30 AM50 °FSunny.6 mph88%29.86 "Hg10 mi
6:00 AM50 °FSunny.7 mph88%29.86 "Hg10 mi
5:30 AM48 °FPassing clouds.5 mph94%29.86 "HgN/A
5:00 AM48 °FPassing clouds.8 mph94%29.83 "HgN/A
4:30 AM50 °FPassing clouds.8 mph88%29.83 "HgN/A
4:00 AM50 °FPassing clouds.9 mph88%29.83 "HgN/A
3:30 AM50 °FPassing clouds.6 mph94%29.83 "HgN/A
3:00 AM52 °FPassing clouds.3 mph82%29.83 "HgN/A
2:30 AM52 °FPassing clouds.6 mph82%29.83 "HgN/A
2:00 AM52 °FClear.9 mph82%29.83 "Hg10 mi
1:30 AM54 °FClear.10 mph72%29.83 "Hg10 mi
12:00 AM57 °FPassing clouds.7 mph51%29.80 "HgN/A
11:30 PM
Thu, May 28
57 °FPassing clouds.6 mph51%29.83 "HgN/A
11:00 PM57 °FPassing clouds.6 mph55%29.83 "HgN/A
10:30 PM59 °FPassing clouds.6 mph51%29.83 "HgN/A
10:00 PM59 °FPassing clouds.5 mph51%29.83 "HgN/A
9:30 PM59 °FPassing clouds.5 mph51%29.83 "HgN/A
9:00 PM61 °FPassing clouds.6 mph45%29.83 "HgN/A
8:30 PM61 °FPassing clouds.6 mph45%29.83 "HgN/A
8:00 PM61 °FPassing clouds.6 mph45%29.83 "HgN/A
7:30 PM63 °FPassing clouds.7 mph42%29.86 "HgN/A
7:00 PM63 °FPassing clouds.9 mph42%29.86 "HgN/A
6:30 PM63 °FPassing clouds.8 mph42%29.86 "HgN/A
6:00 PM64 °FPassing clouds.8 mph37%29.86 "HgN/A
5:30 PM63 °FPassing clouds.7 mph39%29.86 "HgN/A
5:00 PM63 °FPassing clouds.7 mph42%29.89 "HgN/A
4:30 PM61 °FSunny.6 mph52%29.89 "Hg10 mi
4:00 PM61 °FPassing clouds.7 mph52%29.89 "HgN/A
3:30 PM63 °FSunny.3 mph39%29.92 "Hg10 mi
3:00 PM61 °FPassing clouds.3 mph42%29.92 "HgN/A
2:30 PM61 °FSunny.3 mph45%29.92 "Hg10 mi
2:00 PM61 °FPassing clouds.6 mph45%29.92 "HgN/A
Weather by CustomWeather, © 2015

See weather overviewHow to use our weather pages